This demonstration page uses our WeatherBlox Daily Observations layout. Learn more.

Left ArrowRight Arrow

Hourly Observations for April 30, 2021

Temp ( °F °C ) Dew Point ( °F °C ) Humidity (%) Winds ( mph kmh ) Pressure ( in mb ) Visibility ( mi km ) Precip ( " mm )
12:56 am 00:56 Clear 53 11.7 34 1.1 48 48 SSW 8 13 30.20 1023 10 16 0.00 0.00
1:56 am 01:56 Clear 52 11.1 34 1.1 50 50 SSW 8 13 30.19 1022 10 16 0.00 0.00
2:56 am 02:56 Clear 52 11.1 34 1.1 50 50 SW 9 15 30.19 1022 10 16 0.00 0.00
3:56 am 03:56 Clear 50 10 35 1.7 57 57 SW 9 15 30.19 1022 10 16 0.00 0.00
4:56 am 04:56 Clear 50 10 34 1.1 54 54 SW 7 11 30.19 1022 10 16 0.00 0.00
5:56 am 05:56 Mostly Cloudy 50 10 34 1.1 54 54 WSW 9 15 30.18 1022 10 16 0.00 0.00
6:56 am 06:56 Sunny 51 10.6 35 1.7 54 54 SW 10 17 30.18 1022 10 16 0.00 0.00
7:56 am 07:56 Sunny 52 11.1 36 2.2 55 55 WSW 8 13 30.20 1023 10 16 0.00 0.00
8:56 am 08:56 Sunny 55 12.8 39 3.9 55 55 SW 10 17 30.19 1022 10 16 0.00 0.00
9:56 am 09:56 Sunny 64 17.8 44 6.7 48 48 W 12 19 30.17 1022 10 16 0.00 0.00
10:56 am 10:56 Sunny 74 23.3 43 6.1 33 33 WNW 15 24 30.15 1021 10 16 0.00 0.00
11:56 am 11:56 Sunny 77 25 45 7.2 32 32 NNW 12 19 30.14 1021 10 16 0.00 0.00
12:56 pm 12:56 Sunny 79 26.1 45 7.2 30 30 WNW 8 13 30.12 1020 10 16 0.00 0.00
1:56 pm 13:56 Sunny 81 27.2 43 6.1 26 26 W 7 11 30.09 1019 10 16 0.00 0.00
2:56 pm 14:56 Sunny 83 28.3 41 5 23 23 W 12 19 30.06 1018 10 16 0.00 0.00
3:56 pm 15:56 Sunny 83 28.3 40 4.4 22 22 SW 12 19 30.03 1017 10 16 0.00 0.00
4:56 pm 16:56 Sunny 84 28.9 42 5.6 23 23 W 12 19 30.01 1016 10 16 0.00 0.00
5:56 pm 17:56 Sunny 84 28.9 42 5.6 23 23 SW 12 19 29.99 1016 10 16 0.00 0.00
6:56 pm 18:56 Sunny 82 27.8 41 5 23 23 SSW 14 22 29.97 1015 10 16 0.00 0.00
7:56 pm 19:56 Sunny 78 25.6 38 3.3 24 24 SSW 15 24 29.96 1015 10 16 0.00 0.00
8:56 pm 20:56 Clear 73 22.8 39 3.9 29 29 SSW 17 28 29.96 1015 10 16 0.00 0.00
9:56 pm 21:56 Clear 70 21.1 40 4.4 34 34 SSW 17 28 29.96 1015 10 16 0.00 0.00
10:56 pm 22:56 Clear 68 20 39 3.9 35 35 SSW 21 33 29.95 1014 10 16 0.00 0.00
11:56 pm 23:56 Clear 66 18.9 39 3.9 37 37 SSW 16 26 29.93 1014 10 16 0.00 0.00

Powered by AerisWeather